GW2993 Weather Reports


Display with metric or nautical units.
time (UTC)temp
F
wind
direction
speed
MPH
gust
MPH
rain 1hr
in
rain 24hr
in
rain mn
in
humidity
%
barometer
mb
20260507040038 66 236 9.0 15.0 0.00 0.00 0.00 63 1016.1
20260507034545 66 259 11.0 15.0 0.00 0.00 0.00 63 1015.9
20260507033037 67 257 8.0 15.0 0.00 0.00 0.00 62 1015.7
20260507031540 67 238 12.0 17.0 0.00 0.00 0.00 62 1015.5
20260507030038 67 235 12.0 17.0 0.00 0.00 0.00 60 1015.4
20260507024541 68 236 13.0 18.0 0.00 0.00 0.00 59 1015.3
20260507023037 69 226 10.0 16.0 0.00 0.00 0.00 58 1015.1
20260507021537 71 238 8.0 14.0 0.00 0.00 0.00 56 1015.0
20260507020048 71 246 9.0 15.0 0.00 0.00 0.00 55 1014.9
20260507014538 71 260 11.0 16.0 0.00 0.00 0.00 54 1014.7
20260507013040 72 238 12.0 17.0 0.00 0.00 0.00 53 1014.7
20260507011541 72 243 12.0 19.0 0.00 0.00 0.00 53 1014.4
20260507010042 73 193 12.0 20.0 0.00 0.00 0.00 52 1014.2
20260507004536 73 240 12.0 20.0 0.00 0.00 0.00 52 1014.2
20260507003037 72 221 16.0 25.0 0.00 0.00 0.00 52 1014.2
20260507001541 73 232 15.0 20.0 0.00 0.00 0.00 52 1014.2
20260507000038 73 260 15.0 21.0 0.00 0.00 0.00 51 1014.0
20260506234540 74 242 14.0 20.0 0.00 0.00 0.00 50 1013.8
20260506233037 74 266 11.0 23.0 0.00 0.00 0.00 47 1013.9
20260506231535 74 244 12.0 20.0 0.00 0.00 0.00 47 1014.1
20260506230035 74 251 10.0 18.0 0.00 0.00 0.00 47 1014.2
20260506224544 74 211 11.0 19.0 0.00 0.00 0.00 47 1014.3
20260506223037 74 232 10.0 18.0 0.00 0.00 0.00 47 1014.5
20260506221537 73 219 10.0 18.0 0.00 0.00 0.00 48 1014.7
20260506220038 73 247 11.0 18.0 0.00 0.00 0.00 47 1014.9
20260506214536 73 232 12.0 18.0 0.00 0.00 0.00 47 1015.0
20260506213042 72 243 10.0 16.0 0.00 0.00 0.00 48 1015.2
20260506211538 71 214 10.0 16.0 0.00 0.00 0.00 49 1015.4
20260506210040 71 217 8.0 15.0 0.00 0.00 0.00 50 1015.6
20260506204538 71 254 10.0 18.0 0.00 0.00 0.00 50 1015.7
20260506203037 70 232 3.0 13.0 0.00 0.00 0.00 51 1015.9
20260506201537 69 140 4.0 11.0 0.00 0.00 0.00 51 1016.1
20260506200038 69 198 4.0 11.0 0.00 0.00 0.00 51 1016.3
20260506194550 68 227 6.0 10.0 0.00 0.00 0.00 51 1016.5
20260506193037 67 268 6.0 11.0 0.00 0.00 0.00 52 1016.7
20260506191537 67 321 4.0 9.0 0.00 0.00 0.00 52 1016.9
20260506190037 65 132 3.0 7.0 0.00 0.00 0.00 53 1017.1
20260506184537 65 0 1.0 7.0 0.00 0.00 0.00 54 1017.4
20260506183038 64 240 4.0 7.0 0.00 0.00 0.00 55 1017.5
20260506181545 63 222 4.0 9.0 0.00 0.00 0.00 56 1017.5
20260506180042 63 115 2.0 3.0 0.00 0.00 0.00 57 1017.6
20260506174537 62 125 1.0 8.0 0.00 0.00 0.00 59 1017.6
20260506173037 61 115 3.0 8.0 0.00 0.00 0.00 61 1017.6
20260506171550 61 94 1.0 8.0 0.00 0.00 0.00 63 1017.7
20260506170040 60 0 2.0 8.0 0.00 0.00 0.00 64 1017.7
20260506164536 60 194 3.0 6.0 0.00 0.00 0.00 65 1017.6
20260506163042 59 139 0.0 8.0 0.00 0.00 0.00 68 1017.7
20260506161537 59 183 2.0 6.0 0.00 0.00 0.00 69 1017.8
20260506160037 58 0 0.0 6.0 0.00 0.00 0.00 71 1017.6
20260506154542 59 197 1.0 3.0 0.00 0.00 0.00 71 1017.6
20260506153038 57 0 0.0 3.0 0.00 0.00 0.00 75 1017.6
20260506151538 57 0 0.0 3.0 0.00 0.00 0.00 75 1017.6
20260506150038 56 0 0.0 3.0 0.00 0.00 0.00 76 1017.6
20260506144541 55 166 1.0 4.0 0.00 0.00 0.00 76 1017.6
20260506143036 55 115 2.0 4.0 0.00 0.00 0.00 78 1017.5
20260506141535 54 197 0.0 2.0 0.00 0.00 0.00 79 1017.5
20260506140054 53 198 1.0 3.0 0.00 0.00 0.00 79 1017.4
20260506134538 53 0 0.0 0.0 0.00 0.00 0.00 80 1017.3
20260506133045 51 0 1.0 3.0 0.00 0.00 0.00 81 1017.1
20260506131538 51 309 2.0 4.0 0.00 0.00 0.00 82 1017.0
20260506130037 52 0 0.0 0.0 0.00 0.00 0.00 82 1016.7
20260506124537 52 0 0.0 2.0 0.00 0.00 0.00 82 1016.7
20260506123034 51 309 1.0 2.0 0.00 0.00 0.00 82 1016.6
20260506121538 51 309 2.0 3.0 0.00 0.00 0.00 82 1016.5
20260506120039 51 309 2.0 3.0 0.00 0.00 0.00 82 1016.4
20260506114537 51 309 2.0 4.0 0.00 0.04 0.00 82 1016.4
20260506113046 52 309 2.0 4.0 0.00 0.04 0.00 81 1016.5
20260506111535 52 309 1.0 3.0 0.00 0.04 0.00 81 1016.4
20260506110039 52 309 1.0 2.0 0.00 0.04 0.00 81 1016.4
20260506104545 52 309 2.0 4.0 0.00 0.13 0.00 80 1016.4
20260506103041 52 347 3.0 4.0 0.00 0.13 0.00 80 1016.4
20260506101546 52 352 3.0 4.0 0.00 0.13 0.00 79 1016.3
20260506100037 52 326 3.0 4.0 0.00 0.13 0.00 79 1016.3
20260506094536 52 326 1.0 3.0 0.00 0.14 0.00 79 1016.4
20260506093037 52 0 1.0 3.0 0.00 0.14 0.00 79 1016.3
20260506091537 53 348 2.0 5.0 0.00 0.14 0.00 79 1016.4
20260506090036 54 290 1.0 5.0 0.00 0.14 0.00 79 1016.4
20260506084541 54 286 3.0 6.0 0.00 0.14 0.00 80 1016.5
20260506083037 55 284 4.0 7.0 0.00 0.14 0.00 79 1016.8
20260506081540 55 279 3.0 6.0 0.00 0.14 0.00 77 1017.0
20260506073038 55 306 1.0 4.0 0.00 0.14 0.00 75 1017.1
20260506071538 56 254 2.0 7.0 0.00 0.14 0.00 75 1017.1
20260506061537 56 251 6.0 9.0 0.00 0.14 0.14 72 1016.4
20260506044539 58 232 10.0 14.0 0.00 0.14 0.14 69 1015.7
20260506043037 58 223 10.0 14.0 0.00 0.14 0.14 67 1015.4
20260506041539 59 225 10.0 13.0 0.00 0.14 0.14 63 1015.2